Home > Weather > Damascus > Past weeks

Flag for Syria Past Weather in Damascus, Syria — Yesterday and Last 2 Weeks

Now
72 °F

Clear.


Feels Like: 74 °F
Forecast: 57 / 98 °F
Wind: 15 mph from Southwest

Location: Damascus Int. Airport

Current Time: Jul 27, 2016 at 4:15:47 AM

Latest Report: Jul 27, 2016 at 3:00 AM


Visibility: 10 mi

Pressure: 29.80 "Hg (27.52 "Hg at 689m altitude)

Humidity: 73%

Dew Point: 63 °F

Location of DamascusLocation

Past Weather in Damascus — Graph

°F

Damascus Temperature Yesterday

Maximum temperature yesterday: 102 °F (at 4:00 PM)
Minimum temperature yesterday: 70 °F (at 5:00 AM)
Average temperature yesterday: 84 °F

High & Low Weather Summary for the Past Weeks

 TemperatureHumidityPressure
High108 °F (Jul 16, 5:00 PM)88% (Jul 17, 5:00 AM)29.95 "Hg (Jul 17, 5:00 AM)
Low63 °F (Jul 22, 6:00 AM)6% (Jul 15, 4:00 PM)29.62 "Hg (Jul 19, 5:00 PM)
Average83 °F46%29.78 "Hg
* Reported Jul 12 3:00 AM — Jul 27 3:00 AM, Damascus, Weather by CustomWeather, © 2016

Note: Actual official high and low records may vary slightly from our data, if they occured in-between our weather recording intervals... More about our weather records

Advertising

Damascus Weather History for the Previous 24 Hours

Scroll right to see more
 ConditionsComfort  
Time TempWeatherWind HumidityBarometerVisibility
3:00 AM
Wed, Jul 27
72 °FClear.15 mph73%29.80 "Hg10 mi
2:00 AM73 °FClear.18 mph69%29.80 "Hg10 mi
1:00 AM77 °FClear.17 mph57%29.77 "Hg10 mi
12:00 AM79 °FClear.15 mph58%29.80 "Hg10 mi
11:00 PM
Tue, Jul 26
81 °FClear.17 mph51%29.77 "Hg10 mi
10:00 PM82 °FClear.20 mph42%29.77 "Hg10 mi
9:00 PM86 °FClear.22 mph40%29.74 "Hg10 mi
8:00 PM90 °FSunny.21 mph33%29.74 "Hg10 mi
7:00 PM95 °FSunny.21 mph30%29.71 "Hg10 mi
6:00 PM99 °FSunny.20 mph27%29.71 "Hg10 mi
5:00 PM100 °FSunny.13 mph31%29.71 "Hg10 mi
4:00 PM102 °FSunny.10 mph26%29.71 "Hg10 mi
3:00 PM100 °FSunny.8 mph27%29.74 "Hg10 mi
2:00 PM97 °FSunny.3 mph30%29.74 "Hg10 mi
1:00 PM93 °FSunny.9 mph39%29.77 "Hg10 mi
12:00 PM90 °FSunny.6 mph43%29.80 "Hg10 mi
11:00 AM86 °FSunny.7 mph55%29.80 "Hg10 mi
10:00 AM82 °FSunny.9 mph62%29.80 "Hg10 mi
9:00 AM79 °FSunny.8 mph58%29.80 "Hg10 mi
8:00 AM73 °FSunny.14 mph74%29.80 "Hg10 mi
7:00 AM70 °FSunny.9 mph83%29.80 "Hg10 mi
6:00 AM70 °FMild.14 mph83%29.77 "HgN/A
5:00 AM70 °FMild.16 mph83%29.80 "HgN/A
4:00 AM72 °FClear.14 mph78%29.77 "Hg10 mi
Weather by CustomWeather, © 2016

See weather overviewHow to use our weather pages